Temperature
18 18 18 18 18 18 18 17 17 17 17 17 17 17 17 18 18 18 18 18 18 18 18 18 18 18 18 18 18 17 17 17 17 17 17 17 17 17 17 17 17 17 17
17 17 17 17 18 18 18 17 17 17 17 17 17 17 17 18 17 17 18 18 18 18 18 18 18 18 18 18 18 18 18 17 17 17 17 17 17 17 17 17 17 17 17
17 17 17 17 17 17 17 17 17 17 17 17 17 17 17 17 17 17 17 17 18 18 18 18 18 18 18 18 18 18 18 17 17 17 17 17 17 17 16 16 17 17 17
17 17 17 17 17 17 17 17 17 17 17 17 17 17 17 17 17 17 17 17 17 18 18 18 18 18 18 18 18 18 18 18 17 17 17 17 17 17 17 17 16 16 16
16 16 16 17 17 17 17 17 17 17 17 17 17 17 17 17 17 17 17 17 17 17 17 17 17 18 18 18 18 18 17 17 17 17 17 17 17 17 17 17 17 16 16
16 16 16 16 16 16 16 17 17 16 17 17 17 18 17 17 17 17 17 17 17 17 17 17 17 17 18 18 18 17 17 17 17 17 17 17 17 17 17 17 17 17 16
16 16 16 16 16 16 16 16 16 16 16 16 17 17 17 17 17 17 17 17 18 17 17 17 17 17 17 17 18 17 17 17 17 17 17 17 17 17 17 17 17 17 17
15 15 15 15 15 16 16 16 16 16 16 16 17 18 19 19 17 17 17 16 17 17 17 17 16 16 17 17 17 17 17 17 17 17 17 17 17 17 17 17 17 17 17
15 15 15 15 15 15 15 16 16 16 16 16 16 17 19 20 20 18 17 17 16 16 17 17 16 16 16 16 17 17 17 17 17 17 17 17 17 17 17 17 17 17 17
15 15 15 15 15 15 15 15 15 15 15 16 16 16 17 18 18 19 17 17 16 16 16 16 17 16 16 16 16 17 17 17 17 17 17 17 17 17 17 17 17 17 17
14 14 14 14 14 14 15 15 15 15 15 16 16 16 16 16 16 17 19 18 17 17 16 16 16 16 16 16 16 16 17 17 17 17 17 17 17 17 17 17 17 17 17
13 13 13 14 14 14 14 15 15 15 15 15 16 16 16 17 17 17 18 17 17 17 16 16 16 16 16 16 16 16 17 17 17 17 17 17 17 17 17 17 17 17 17
13 13 13 13 13 13 13 13 14 14 14 14 15 15 16 16 17 17 17 18 17 17 16 16 16 15 15 15 16 16 17 17 17 17 17 17 17 17 17 16 16 16 16
13 13 12 12 12 12 12 12 13 13 13 14 14 14 15 15 16 16 16 17 17 17 17 16 15 15 15 15 15 16 16 17 17 17 17 17 17 17 16 16 16 16 16
12 12 12 12 11 12 12 12 12 12 12 13 13 14 14 15 15 15 16 16 17 18 18 16 15 15 15 15 15 15 15 16 16 16 16 17 16 16 16 16 16 16 16
11 11 11 11 11 11 11 11 11 11 12 12 12 13 13 14 14 14 15 15 16 16 18 17 15 15 14 14 14 14 15 15 16 16 16 16 16 16 16 16 16 16 16
10 10 10 11 11 11 11 11 11 11 11 11 11 12 12 13 13 14 14 14 15 15 16 16 15 14 14 14 14 14 14 14 15 15 15 15 15 15 15 15 15 15 15
9 9 10 10 10 10 10 10 10 10 10 10 11 11 11 12 13 13 13 14 14 14 15 15 15 14 14 14 13 13 13 13 14 14 14 14 15 15 15 15 15 15 15
8 9 9 9 10 10 10 10 10 10 10 10 10 10 11 11 12 12 13 13 13 14 14 14 14 14 13 13 13 13 13 13 13 13 13 14 14 14 14 14 14 14 14
8 8 8 9 9 9 10 10 10 10 10 10 10 10 10 10 11 11 12 13 13 13 13 14 14 14 13 13 13 12 12 12 12 12 12 13 13 13 13 13 13 13 13
7 7 8 8 8 9 9 10 10 10 10 10 9 9 10 10 10 11 11 12 12 13 13 13 14 14 13 13 12 12 12 12 11 11 12 12 12 12 12 12 13 13 13
6 7 7 7 8 8 9 9 10 10 10 10 9 9 9 10 10 10 11 11 11 12 12 13 13 13 13 13 13 12 12 12 11 11 11 11 11 11 11 12 12 12 12
6 6 6 6 7 8 8 9 9 9 10 10 9 9 10 10 9 10 10 10 11 11 12 12 13 13 13 13 13 12 12 12 11 11 11 10 10 10 11 11 11 11 11
6 6 6 6 6 7 7 8 8 9 9 9 9 9 9 10 9 9 10 10 10 11 11 12 12 13 13 13 13 13 12 12 11 11 11 10 10 10 10 10 11 11 11
5 5 6 6 6 6 7 7 8 8 8 9 9 9 9 9 9 9 9 10 10 10 11 11 12 12 12 12 12 12 12 11 11 10 10 10 9 9 9 9 10 10 10
5 5 5 6 6 6 6 7 7 7 8 8 8 9 9 9 9 9 9 9 10 10 11 11 11 12 12 12 12 12 12 12 11 10 10 10 10 9 8 8 8 9 9
Wind_Speed
11 11 9 10 12 12 11 11 12 12 12 13 13 14 14 15 14 13 10 13 16 18 18 18 19 20 21 22 23 25 25 25 24 24 24 24 23 23 23 22 21 20 19
11 12 11 11 11 13 13 11 12 11 11 10 12 13 14 14 13 14 14 13 18 18 18 18 19 19 21 22 23 25 25 26 26 25 25 24 24 25 24 24 23 22 21
13 12 11 11 11 13 12 11 12 11 11 11 12 13 12 12 12 13 14 13 13 18 20 19 19 19 20 21 23 24 25 25 26 26 26 26 26 26 26 26 25 24 24
15 12 12 11 10 10 9 10 10 10 10 10 9 10 10 9 12 12 13 13 12 12 16 21 19 19 20 21 22 23 25 25 26 26 26 27 27 27 27 26 26 26 26
14 11 9 8 9 8 9 10 9 9 10 9 9 9 10 9 10 11 12 12 13 12 12 14 19 18 19 21 22 23 24 24 25 26 26 27 27 28 28 28 27 27 27
10 8 7 8 9 8 8 9 9 8 8 8 9 9 8 9 9 10 11 11 12 13 14 13 12 16 21 21 21 22 22 23 25 25 26 27 27 28 28 28 27 27 28
7 6 6 6 6 7 8 9 9 10 9 7 7 8 9 10 10 9 10 10 11 11 11 11 11 11 12 21 22 21 21 22 24 25 26 26 27 27 28 28 28 28 28
6 5 5 5 6 6 8 9 9 8 8 7 7 7 7 8 8 9 8 9 9 8 9 10 10 10 11 10 14 21 21 22 23 24 25 25 26 26 27 27 28 28 28
5 5 5 6 5 6 7 8 8 9 8 7 8 7 6 6 4 6 7 7 6 6 7 6 8 9 10 10 10 15 18 19 20 22 23 25 26 26 26 27 26 26 26
5 5 5 6 6 6 6 7 7 7 9 8 7 8 8 5 5 4 7 8 8 7 7 6 6 6 8 8 7 4 9 14 16 19 21 22 24 25 25 26 26 26 26
4 4 5 5 5 5 6 7 6 8 8 9 8 8 8 7 8 7 5 6 7 7 6 6 5 5 5 6 5 3 5 8 12 15 17 20 22 23 24 24 25 25 25
4 4 4 4 5 5 6 6 7 9 9 10 9 9 8 8 9 8 7 7 6 5 5 4 4 4 3 3 1 4 1 3 7 10 13 16 19 21 22 23 24 24 25
7 5 4 4 4 4 5 6 7 8 10 11 11 10 10 10 8 8 8 7 5 5 4 5 4 3 2 1 2 3 2 2 3 5 7 10 12 15 17 19 20 21 22
10 7 7 6 6 5 5 5 6 8 8 10 12 12 10 10 9 9 8 7 7 6 6 5 4 3 3 2 4 1 4 5 4 4 4 5 7 8 10 11 12 13 14
11 11 10 9 8 8 7 6 6 7 8 10 11 12 11 10 10 10 9 9 8 7 6 6 5 5 4 4 3 3 6 9 7 7 7 6 6 7 8 8 8 8 8
14 14 13 13 12 11 10 9 8 7 7 9 10 11 11 10 10 10 10 9 9 8 6 5 5 6 5 4 6 7 9 12 12 11 10 10 9 10 10 9 8 8 8
15 15 16 15 15 14 12 11 11 9 10 9 9 11 13 13 10 9 9 10 10 9 8 6 6 7 7 6 6 7 7 8 10 13 13 13 13 13 13 12 10 10 9
16 16 16 17 17 16 15 14 13 12 11 11 11 10 11 11 13 11 9 11 10 10 9 9 7 7 7 8 8 7 6 8 9 13 14 14 14 14 14 14 13 12 12
16 16 16 17 18 18 17 16 15 14 13 12 12 11 11 10 12 11 12 11 10 10 10 9 9 7 6 8 8 7 8 7 8 11 13 14 14 15 15 14 14 14 14
17 17 17 17 18 18 18 18 17 16 14 13 12 12 11 11 11 10 11 12 11 12 11 10 8 9 8 9 9 8 7 6 6 7 10 12 14 15 15 15 14 15 15
18 17 17 17 18 17 18 18 17 17 16 14 13 13 13 12 10 8 8 8 10 10 10 11 10 9 9 10 9 8 8 7 5 5 8 8 9 9 11 13 14 15 16
18 17 17 18 18 17 16 15 16 17 16 16 14 13 12 12 12 11 10 9 9 10 11 11 10 11 13 12 11 11 11 9 5 5 7 7 6 7 8 10 13 16 17
18 18 17 18 18 17 14 14 16 17 17 16 15 13 12 12 13 12 12 12 12 11 11 10 11 12 13 14 14 15 13 11 7 8 8 7 7 8 9 13 15 16 18
16 16 16 17 17 17 15 15 15 18 18 16 15 15 14 12 12 11 11 12 12 11 11 11 11 10 10 12 14 14 13 10 10 7 6 6 7 9 10 12 14 16 18
15 15 15 15 16 15 14 15 15 14 16 18 16 15 15 14 10 9 11 12 12 11 11 11 8 5 4 9 11 12 13 13 10 8 6 6 9 10 9 9 12 14 16
14 14 14 13 14 14 13 15 16 13 15 15 14 14 13 12 10 12 12 11 12 12 10 10 9 7 9 13 15 15 16 14 11 7 8 8 12 9 7 8 10 12 13
Wind_Direction
241 240 237 238 242 239 232 234 242 242 242 242 241 239 242 239 241 241 236 199 211 222 228 230 229 228 226 223 220 217 215 216 215 215 216 216 216 213 211 209 207 206 206
250 246 243 241 242 243 243 242 242 243 243 244 246 244 242 243 238 240 244 222 208 217 225 229 230 229 228 224 221 219 217 216 215 213 214 215 218 217 214 212 210 208 207
254 251 248 244 245 245 242 243 247 246 243 242 244 246 244 243 241 238 243 246 233 214 215 222 227 229 229 226 221 218 217 217 215 214 214 215 216 218 217 214 212 210 209
258 256 253 251 250 245 239 240 241 241 240 241 244 244 242 239 240 240 242 239 244 245 218 211 218 226 229 227 224 220 218 217 215 214 214 215 215 215 216 216 214 213 211
264 259 255 259 256 246 239 243 237 237 239 236 241 237 242 241 243 242 242 245 242 242 248 209 206 220 227 229 227 225 222 218 216 214 213 215 216 216 215 215 215 215 214
278 270 261 257 252 243 237 235 239 236 246 242 247 247 240 240 238 240 243 243 244 243 243 244 226 220 218 225 228 228 224 219 215 213 213 213 215 216 215 214 215 217 216
293 283 275 265 254 245 239 235 233 229 233 233 240 242 237 235 239 244 243 247 240 238 244 245 247 248 223 213 220 226 225 221 217 213 212 212 213 214 213 213 214 217 217
313 300 290 281 264 253 241 235 230 236 231 216 232 245 242 224 220 230 226 227 236 230 232 233 238 244 255 242 216 213 222 223 220 215 212 211 212 213 213 212 213 216 218
332 320 296 279 264 255 245 236 227 229 234 223 225 241 246 243 205 195 213 219 219 229 237 237 236 240 241 247 244 209 212 220 221 218 213 210 210 210 211 212 212 214 217
331 328 310 291 268 254 251 244 237 236 237 233 219 234 255 292 263 209 198 201 211 224 243 251 249 240 240 244 236 245 207 216 220 219 217 213 211 210 210 212 213 215 217
308 317 317 308 294 274 260 249 247 239 235 239 233 220 221 226 239 260 227 199 206 218 222 234 246 251 245 247 244 228 194 216 220 220 219 216 213 211 212 213 215 216 219
291 291 293 296 292 288 277 265 249 240 242 243 246 237 223 219 220 225 233 227 224 218 220 234 236 228 228 236 211 73 108 217 221 222 219 215 214 212 213 215 218 219 221
278 266 268 271 281 280 278 272 259 252 243 239 236 238 237 236 235 227 233 230 227 220 211 218 200 194 188 187 118 87 119 152 183 201 205 206 207 208 212 216 219 221 221
278 273 255 246 243 249 258 260 264 260 254 246 241 239 240 237 234 229 231 231 225 218 204 200 166 164 149 136 82 277 116 108 117 132 155 175 184 186 192 197 204 206 211
270 261 252 246 242 236 236 241 250 255 258 254 248 241 238 237 234 232 230 232 236 230 208 181 182 152 151 119 110 98 91 89 89 99 107 117 132 145 151 158 164 167 172
274 267 258 251 244 237 232 233 242 241 246 254 254 250 242 241 236 231 228 227 232 242 234 186 172 157 141 132 115 105 97 96 85 87 91 98 107 115 118 123 132 141 146
273 266 260 253 248 243 235 231 239 239 238 243 254 254 246 240 235 231 228 225 224 227 228 208 172 149 150 147 132 121 118 106 94 85 88 91 95 98 101 104 108 114 117
273 266 260 255 249 244 238 233 234 235 237 239 238 245 254 247 236 232 230 226 223 222 223 214 188 168 162 151 136 128 118 106 101 91 89 89 91 94 96 98 100 102 104
274 269 262 256 251 247 242 236 234 233 234 235 237 238 242 250 245 233 227 229 225 220 222 216 201 173 159 151 137 125 115 113 108 108 99 93 91 92 93 95 97 98 99
275 269 263 257 251 247 242 237 232 231 232 232 231 232 234 236 243 242 231 227 226 221 216 218 202 178 164 159 151 145 134 130 123 117 100 101 100 94 93 94 95 97 98
276 271 264 257 250 245 240 233 231 229 228 230 228 227 227 226 233 240 242 232 228 222 215 215 205 187 174 169 168 162 145 132 121 138 130 126 124 114 107 102 99 100 100
278 274 267 259 251 244 233 223 226 231 227 226 227 224 222 214 220 221 238 246 247 237 223 217 209 199 186 179 170 163 153 153 150 164 143 125 122 112 103 98 100 104 104
279 273 267 260 253 246 234 216 217 230 229 225 224 222 225 215 204 217 215 224 236 252 254 241 226 213 192 180 172 170 171 172 153 155 144 124 119 108 101 98 103 107 108
279 274 267 260 253 243 220 211 209 225 231 226 222 220 223 227 212 214 216 218 221 224 233 237 239 230 207 184 179 174 162 137 124 143 149 131 131 119 112 108 106 110 112
280 273 267 260 252 242 215 204 203 221 225 226 222 219 218 222 195 188 222 224 222 221 222 230 247 253 214 172 167 158 151 149 147 153 162 139 138 127 121 120 114 112 114
282 276 268 258 249 241 214 199 199 218 222 221 219 218 213 223 180 179 221 227 224 220 215 206 210 204 189 170 168 174 169 165 154 154 167 153 152 143 131 134 139 140 128
Height
1531 1532 1531 1531 1533 1534 1534 1534 1535 1536 1536 1537 1538 1539 1539 1541 1542 1543 1544 1543 1544 1546 1547 1549 1551 1552 1554 1556 1558 1560 1563 1565 1567 1569 1571 1573 1575 1577 1580 1582 1584 1586 1588
1525 1525 1525 1526 1526 1528 1529 1530 1530 1530 1531 1532 1532 1533 1534 1536 1536 1537 1539 1539 1539 1541 1542 1544 1546 1547 1549 1551 1553 1555 1558 1560 1562 1564 1566 1569 1571 1574 1576 1579 1581 1583 1585
1519 1519 1519 1520 1521 1522 1523 1523 1524 1525 1525 1526 1527 1528 1529 1530 1531 1531 1533 1535 1536 1536 1537 1539 1540 1542 1544 1546 1548 1550 1552 1555 1557 1560 1562 1564 1567 1570 1572 1575 1577 1580 1582
1512 1512 1512 1513 1514 1515 1516 1517 1518 1520 1520 1521 1522 1523 1524 1525 1525 1527 1529 1530 1531 1533 1533 1533 1535 1536 1538 1540 1542 1545 1547 1549 1552 1554 1557 1559 1562 1564 1567 1570 1573 1576 1578
1505 1505 1505 1506 1506 1508 1509 1511 1513 1514 1516 1516 1518 1519 1520 1521 1521 1523 1524 1525 1527 1527 1529 1529 1529 1530 1532 1534 1537 1539 1541 1544 1546 1549 1551 1554 1557 1559 1562 1565 1568 1571 1574
1498 1497 1498 1499 1500 1501 1502 1505 1507 1509 1511 1512 1514 1515 1516 1517 1517 1519 1519 1521 1522 1523 1524 1525 1525 1526 1526 1528 1530 1533 1535 1538 1541 1543 1546 1548 1551 1554 1557 1560 1563 1566 1569
1493 1492 1492 1494 1494 1496 1497 1500 1502 1505 1506 1508 1510 1511 1512 1512 1513 1514 1515 1516 1517 1518 1519 1520 1521 1522 1523 1522 1524 1527 1529 1532 1534 1537 1540 1543 1546 1549 1552 1555 1558 1561 1564
1490 1489 1489 1489 1489 1491 1493 1496 1498 1501 1503 1504 1506 1508 1508 1509 1508 1509 1510 1511 1513 1514 1515 1516 1516 1517 1518 1519 1520 1521 1523 1526 1529 1532 1534 1538 1540 1543 1547 1550 1553 1557 1560
1489 1487 1486 1486 1486 1488 1490 1492 1494 1495 1499 1500 1502 1505 1505 1504 1504 1506 1507 1508 1509 1510 1511 1512 1513 1513 1513 1514 1516 1516 1518 1520 1523 1526 1529 1532 1535 1538 1541 1545 1548 1551 1554
1487 1485 1484 1484 1483 1485 1486 1488 1489 1492 1494 1496 1498 1500 1502 1502 1503 1503 1504 1505 1505 1506 1507 1508 1509 1509 1509 1510 1511 1512 1513 1515 1518 1521 1524 1527 1530 1533 1536 1539 1543 1546 1549
1485 1483 1482 1481 1481 1481 1483 1484 1486 1487 1490 1492 1495 1497 1498 1499 1500 1501 1500 1502 1503 1504 1504 1504 1505 1505 1506 1506 1507 1508 1509 1511 1514 1516 1519 1522 1525 1528 1531 1534 1537 1540 1543
1483 1481 1479 1478 1478 1477 1478 1479 1481 1482 1484 1487 1490 1492 1494 1495 1496 1497 1498 1499 1500 1501 1501 1501 1501 1502 1502 1503 1503 1504 1505 1507 1510 1512 1515 1517 1520 1523 1525 1528 1531 1534 1537
1480 1478 1476 1474 1474 1473 1473 1474 1475 1477 1479 1481 1483 1486 1489 1491 1493 1494 1495 1495 1496 1497 1497 1498 1498 1498 1499 1499 1499 1500 1502 1504 1506 1509 1511 1513 1516 1518 1520 1523 1526 1528 1531
1476 1474 1472 1471 1470 1469 1469 1470 1470 1471 1473 1475 1477 1480 1482 1485 1487 1489 1490 1492 1493 1494 1494 1495 1495 1495 1495 1496 1496 1498 1499 1501 1503 1505 1508 1510 1512 1514 1516 1518 1520 1523 1526
1471 1469 1468 1467 1466 1465 1465 1465 1465 1466 1467 1469 1471 1473 1475 1478 1481 1483 1485 1487 1489 1489 1490 1492 1492 1492 1492 1493 1494 1495 1496 1498 1500 1502 1504 1506 1508 1510 1512 1514 1516 1518 1521
1464 1463 1462 1462 1461 1461 1460 1460 1460 1460 1461 1462 1464 1466 1468 1471 1474 1476 1479 1481 1484 1486 1487 1488 1489 1489 1490 1491 1492 1493 1494 1496 1498 1500 1501 1503 1505 1507 1509 1510 1512 1514 1517
1456 1455 1455 1455 1455 1455 1455 1455 1455 1455 1455 1456 1457 1459 1461 1464 1467 1470 1473 1475 1478 1480 1483 1485 1486 1486 1486 1488 1490 1491 1493 1494 1495 1497 1499 1501 1502 1504 1505 1507 1509 1511 1513
1447 1447 1447 1447 1447 1448 1448 1448 1449 1450 1450 1450 1451 1452 1454 1457 1459 1462 1465 1469 1472 1475 1478 1480 1482 1483 1484 1486 1487 1489 1491 1493 1494 1495 1497 1499 1500 1502 1504 1505 1507 1509 1511
1438 1437 1437 1437 1438 1439 1440 1441 1442 1443 1444 1445 1446 1446 1447 1449 1452 1455 1459 1462 1465 1469 1472 1475 1477 1479 1480 1483 1485 1487 1489 1491 1493 1494 1496 1498 1499 1501 1502 1504 1506 1508 1509
1428 1427 1427 1427 1428 1430 1431 1433 1435 1436 1438 1439 1440 1441 1442 1443 1445 1448 1451 1455 1459 1463 1466 1469 1472 1474 1476 1479 1482 1484 1487 1489 1492 1494 1495 1497 1498 1500 1502 1503 1505 1507 1508
1419 1418 1417 1417 1418 1419 1422 1424 1427 1429 1431 1433 1434 1435 1436 1438 1440 1442 1445 1448 1453 1456 1460 1463 1466 1469 1472 1474 1477 1481 1484 1487 1490 1493 1494 1496 1498 1500 1501 1503 1504 1506 1507
1409 1408 1407 1407 1407 1409 1411 1414 1418 1421 1424 1426 1428 1429 1431 1432 1434 1436 1439 1442 1446 1449 1454 1457 1460 1463 1466 1469 1473 1477 1480 1484 1488 1491 1494 1496 1498 1500 1501 1502 1504 1506 1507
1399 1397 1396 1396 1397 1398 1401 1404 1408 1413 1416 1419 1421 1423 1426 1427 1429 1431 1433 1436 1439 1443 1447 1452 1455 1458 1461 1464 1467 1472 1477 1481 1484 1488 1492 1494 1497 1499 1500 1502 1504 1506 1508
1390 1387 1386 1386 1386 1388 1391 1395 1399 1404 1408 1411 1414 1417 1420 1422 1424 1426 1429 1431 1433 1437 1441 1445 1450 1454 1457 1460 1463 1468 1473 1477 1482 1486 1490 1493 1496 1498 1500 1502 1504 1506 1508
1381 1378 1377 1376 1377 1379 1382 1386 1390 1395 1399 1403 1407 1410 1414 1417 1419 1420 1423 1426 1428 1431 1435 1439 1444 1448 1451 1455 1459 1464 1468 1473 1478 1483 1487 1490 1494 1497 1500 1502 1504 1507 1508
1373 1370 1369 1368 1369 1371 1374 1378 1382 1387 1392 1396 1400 1403 1407 1411 1413 1415 1418 1420 1423 1426 1429 1434 1438 1442 1446 1450 1455 1460 1464 1468 1473 1478 1483 1487 1491 1495 1500 1503 1504 1507 1509